Terug naar catalogus

ARIANE 2 DEB

ActiefGTO
NORAD 28569·DEBRIS·🇫🇷 France

Gelanceerd Jan 27, 1989 vanaf Guiana Space Centre

Loading…

TLE

VerouderendSource: Space-Track

Epoch: Sep 14, 2026, 06:54 UTC

1 28569U 89006AL  26257.28814368 -.00000081  00000-0  70832-3 0  9998
2 28569   8.0075  96.9942 7116942  37.3611 127.6347  2.31273622188816

Volg ARIANE 2 DEB in realtime met AllMySat

Download on the App Store